Location: Maiden
(35.5760°N, 81.2120°W)
Time: 20:45:44
(UTC-04:00)

Cosmos 1470 - Pass Details

Date: 14 June 2018
Orbit: 521 x 545 km, 82.5° (Epoch: 24 June)

Event Time Altitude Azimuth Distance (km) Brightness Sun altitude
Rises 21:57:05 0° 359° (N) 2,658 7.0 -13.3°
Reaches altitude 10° 21:59:16 10° 4° (N) 1,767 5.9 -13.6°
Maximum altitude 22:03:03 51° 81° (E) 664 3.0 -14.1°
Enters shadow 22:05:02 25° 147° (SSE) 1,084 3.7 -14.4°
